This is the latest recevied weather packets stored in our database for station/object IZ6UQU-13. If no packets are shown the sender has not sent any weather packets the latest 10 day(s).
| Time | Temp. | Humidity | Pressure | Rain* | Wind** | Luminosity | Snow |
|---|---|---|---|---|---|---|---|
| 1777452002 | 18.89° C | 49% | 957.5 hPa | 0 mm | - | - | - |
| 1777451702 | 18.33° C | 51% | 957.5 hPa | 0 mm | - | - | - |
| 1777451402 | 17.78° C | 54% | 957.6 hPa | 0 mm | - | - | - |
| 1777451102 | 17.22° C | 53% | 957.5 hPa | 0 mm | - | - | - |
| 1777450802 | 17.78° C | 54% | 957.6 hPa | 0 mm | - | - | - |
| 1777450502 | 16.67° C | 56% | 957.6 hPa | 0 mm | - | - | - |
| 1777450202 | 16.67° C | 55% | 957.7 hPa | 0 mm | - | - | - |
| 1777449902 | 16.67° C | 56% | 957.5 hPa | 0 mm | - | - | - |
| 1777449602 | 16.67° C | 57% | 957.6 hPa | 0 mm | - | - | - |
| 1777449302 | 16.67° C | 55% | 957.5 hPa | 0 mm | - | - | - |
| 1777449002 | 16.67° C | 58% | 957.5 hPa | 0 mm | - | - | - |
| 1777448702 | 16.67° C | 57% | 957.5 hPa | 0 mm | - | - | - |
| 1777448402 | 15.56° C | 59% | 957.7 hPa | 0 mm | - | - | - |
| 1777448102 | 15.56° C | 61% | 957.7 hPa | 0 mm | - | - | - |
| 1777447802 | 14.44° C | 64% | 957.7 hPa | 0 mm | - | - | - |
| 1777447502 | 13.89° C | 65% | 957.7 hPa | 0 mm | - | - | - |
| 1777447202 | 14.44° C | 66% | 957.7 hPa | 0 mm | - | - | - |
| 1777446902 | 13.89° C | 66% | 957.7 hPa | 0 mm | - | - | - |
| 1777446602 | 13.89° C | 67% | 957.7 hPa | 0 mm | - | - | - |
| 1777446302 | 13.89° C | 66% | 957.7 hPa | 0 mm | - | - | - |
| 1777446002 | 13.33° C | 68% | 957.7 hPa | 0 mm | - | - | - |
| 1777445702 | 12.78° C | 70% | 957.7 hPa | 0 mm | - | - | - |
| 1777445407 | 12.22° C | 70% | 957.7 hPa | 0 mm | - | - | - |
| 1777445102 | 12.22° C | 71% | 957.7 hPa | 0 mm | - | - | - |
| 1777444802 | 12.22° C | 72% | 957.7 hPa | 0 mm | - | - | - |
* Rain latest hour (hover to see other rain measurements)
** Current wind speed in m/s (hover to see current wind gust speed)